Location: Ferchesar
(52.6477°N, 12.4298°E)
Time: 20:01:09
(UTC+01:00)

BUGSAT 1 - Pass Details

Date: 31 October 2021
Orbit: 558 x 601 km, 98.1° (Epoch: 28 November)

Event Time Altitude Azimuth Distance (km) Brightness Sun altitude
Rises 05:05:05 0° 17° (NNE) 2,764 ? -18.6°
Reaches altitude 10° 05:07:15 10° 21° (NNE) 1,867 ? -18.3°
Maximum altitude 05:11:15 61° 102° (ESE) 650 ? -17.7°
Drops below altitude 10° 05:15:15 10° 183° (S) 1,871 ? -17.1°
Sets 05:17:25 0° 187° (S) 2,770 ? -16.7°
